Location: Newark
(25.4800°N, 85.7200°E)
Time: 10:18:05
(UTC+00:00)

Explorer 11/Cluster Stage 4 - Pass Details

Date: 28 August 2019
Orbit: 467 x 1260 km, 28.8° (Epoch: 19 September)

Event Time Altitude Azimuth Distance (km) Brightness Sun altitude
Rises 05:21:26 0° 279° (W) 4,000 10.0 69.3°
Reaches altitude 10° 05:24:10 10° 282° (WNW) 3,111 9.6 69.7°
Maximum altitude 05:32:11 73° 6° (N) 1,303 8.8 70.8°
Drops below altitude 10° 05:40:24 10° 91° (E) 3,189 10.0 71.9°
Sets 05:43:14 0° 93° (E) 4,104 10.4 72.2°
